Time,TemperatureF,DewpointF,PressureIn,WindDirection,WindDirectionDegrees,WindSpeedMPH,WindSpeedGustMPH,Humidity,HourlyPrecipIn,Conditions,Clouds,dailyrainin,SoftwareType,DateUTC
2013-09-22 00:04:00,59.4,43.6,29.77,SW,225,0.0,0.9,56,0.00,,,0.00,WUHU21623XXSP,2013-09-22 07:04:00,
2013-09-22 00:09:00,59.2,43.4,29.77,SW,225,0.0,0.0,56,0.00,,,0.00,WUHU21623XXSP,2013-09-22 07:09:00,
2013-09-22 00:15:00,58.8,44.0,29.77,SW,225,0.0,0.0,58,0.00,,,0.00,WUHU21623XXSP,2013-09-22 07:15:00,
2013-09-22 00:20:00,58.8,44.5,29.77,SW,225,0.0,0.0,59,0.00,,,0.00,WUHU21623XXSP,2013-09-22 07:20:00,
2013-09-22 00:25:00,58.8,44.5,29.77,SW,225,0.0,0.0,59,0.00,,,0.00,WUHU21623XXSP,2013-09-22 07:25:00,
2013-09-22 00:30:00,58.6,43.9,29.77,North,0,1.6,5.8,58,0.00,,,0.00,WUHU21623XXSP,2013-09-22 07:30:00,
2013-09-22 00:35:00,59.5,42.8,29.77,West,270,6.9,9.8,54,0.00,,,0.00,WUHU21623XXSP,2013-09-22 07:35:00,
2013-09-22 00:40:00,59.9,42.7,29.76,West,270,5.1,9.8,53,0.00,,,0.00,WUHU21623XXSP,2013-09-22 07:40:00,
2013-09-22 00:45:00,60.1,42.4,29.77,West,270,5.1,9.4,52,0.00,,,0.00,WUHU21623XXSP,2013-09-22 07:45:00,
2013-09-22 00:50:00,60.1,42.4,29.77,WNW,292,6.7,9.4,52,0.00,,,0.00,WUHU21623XXSP,2013-09-22 07:50:00,
2013-09-22 00:55:00,60.1,42.4,29.77,WNW,292,4.0,8.3,52,0.00,,,0.00,WUHU21623XXSP,2013-09-22 07:55:00,
2013-09-22 01:00:00,59.7,42.0,29.77,WNW,292,0.0,5.4,52,0.00,,,0.00,WUHU21623XXSP,2013-09-22 08:00:00,
2013-09-22 01:05:00,59.4,42.2,29.77,WNW,292,0.0,6.0,53,0.00,,,0.00,WUHU21623XXSP,2013-09-22 08:05:00,
2013-09-22 01:10:00,59.4,41.7,29.77,WNW,292,0.0,6.0,52,0.00,,,0.00,WUHU21623XXSP,2013-09-22 08:10:00,
2013-09-22 01:16:00,58.8,41.2,29.77,WNW,292,0.0,0.0,52,0.00,,,0.00,WUHU21623XXSP,2013-09-22 08:16:00,
2013-09-22 01:21:00,59.5,40.4,29.77,West,270,6.7,6.7,49,0.00,,,0.00,WUHU21623XXSP,2013-09-22 08:21:00,
2013-09-22 01:26:00,59.7,40.5,29.78,West,270,0.0,6.7,49,0.00,,,0.00,WUHU21623XXSP,2013-09-22 08:26:00,
2013-09-22 01:31:00,59.7,41.1,29.77,West,270,0.0,0.0,50,0.00,,,0.00,WUHU21623XXSP,2013-09-22 08:31:00,
2013-09-22 01:37:00,59.4,41.3,29.77,West,270,0.0,0.0,51,0.00,,,0.00,WUHU21623XXSP,2013-09-22 08:37:00,
2013-09-22 01:42:00,58.8,41.7,29.77,West,270,0.0,0.0,53,0.00,,,0.00,WUHU21623XXSP,2013-09-22 08:42:00,
2013-09-22 01:47:00,58.1,41.5,29.77,West,270,0.0,0.0,54,0.00,,,0.00,WUHU21623XXSP,2013-09-22 08:47:00,
2013-09-22 01:52:00,57.6,41.0,29.77,West,270,0.0,0.0,54,0.00,,,0.00,WUHU21623XXSP,2013-09-22 08:52:00,
2013-09-22 01:58:00,57.4,40.9,29.77,West,270,0.0,0.0,54,0.00,,,0.00,WUHU21623XXSP,2013-09-22 08:58:00,
2013-09-22 02:03:00,57.4,39.9,29.77,West,270,0.0,6.7,52,0.00,,,0.00,WUHU21623XXSP,2013-09-22 09:03:00,
2013-09-22 02:08:00,58.3,39.8,29.77,WNW,292,7.4,12.3,50,0.00,,,0.00,WUHU21623XXSP,2013-09-22 09:08:00,
2013-09-22 02:13:00,58.3,39.2,29.77,NW,315,7.4,12.3,49,0.00,,,0.00,WUHU21623XXSP,2013-09-22 09:13:00,
2013-09-22 02:19:00,58.5,38.8,29.77,WNW,292,6.7,8.5,48,0.00,,,0.00,WUHU21623XXSP,2013-09-22 09:19:00,
2013-09-22 02:24:00,58.8,38.6,29.77,West,270,0.0,7.6,47,0.00,,,0.00,WUHU21623XXSP,2013-09-22 09:24:00,
2013-09-22 02:29:00,58.6,38.4,29.76,West,270,0.0,0.0,47,0.00,,,0.00,WUHU21623XXSP,2013-09-22 09:29:00,
2013-09-22 02:34:00,58.5,38.4,29.76,West,270,0.0,0.0,47,0.00,,,0.00,WUHU21623XXSP,2013-09-22 09:34:00,
2013-09-22 02:40:00,57.9,38.1,29.76,West,270,0.0,0.0,47,0.00,,,0.00,WUHU21623XXSP,2013-09-22 09:40:00,
2013-09-22 02:45:00,57.7,38.2,29.76,West,270,0.0,0.0,48,0.00,,,0.00,WUHU21623XXSP,2013-09-22 09:45:00,
2013-09-22 02:50:00,57.0,37.5,29.76,West,270,0.0,0.0,48,0.00,,,0.00,WUHU21623XXSP,2013-09-22 09:50:00,
2013-09-22 02:55:00,56.8,37.9,29.76,WSW,247,0.0,0.0,49,0.00,,,0.00,WUHU21623XXSP,2013-09-22 09:55:00,
2013-09-22 03:00:00,57.0,38.1,29.76,WSW,247,0.0,0.0,49,0.00,,,0.00,WUHU21623XXSP,2013-09-22 10:00:00,
2013-09-22 03:05:00,57.0,37.5,29.76,WSW,247,0.0,2.5,48,0.00,,,0.00,WUHU21623XXSP,2013-09-22 10:05:00,
2013-09-22 03:10:00,56.8,37.3,29.76,WSW,247,0.0,2.5,48,0.00,,,0.00,WUHU21623XXSP,2013-09-22 10:10:00,
2013-09-22 03:15:00,56.5,37.0,29.76,WSW,247,0.4,0.4,48,0.00,,,0.00,WUHU21623XXSP,2013-09-22 10:15:00,
2013-09-22 03:20:00,56.8,37.3,29.76,WSW,247,2.5,2.5,48,0.00,,,0.00,WUHU21623XXSP,2013-09-22 10:20:00,
2013-09-22 03:25:00,57.0,38.1,29.77,SSW,202,6.0,9.8,49,0.00,,,0.00,WUHU21623XXSP,2013-09-22 10:25:00,
2013-09-22 03:30:00,57.0,38.7,29.77,West,270,3.6,9.8,50,0.00,,,0.00,WUHU21623XXSP,2013-09-22 10:30:00,
2013-09-22 03:35:00,57.0,38.7,29.76,SSW,202,0.0,8.5,50,0.00,,,0.00,WUHU21623XXSP,2013-09-22 10:35:00,
2013-09-22 03:40:00,56.7,38.8,29.76,ENE,67,0.0,8.5,51,0.00,,,0.00,WUHU21623XXSP,2013-09-22 10:40:00,
2013-09-22 03:45:00,56.3,38.4,29.76,NE,45,0.0,2.0,51,0.00,,,0.00,WUHU21623XXSP,2013-09-22 10:45:00,
2013-09-22 03:50:00,55.9,38.0,29.76,NE,45,0.0,0.0,51,0.00,,,0.00,WUHU21623XXSP,2013-09-22 10:50:00,
2013-09-22 03:56:00,55.8,37.9,29.77,ESE,112,0.0,0.0,51,0.00,,,0.00,WUHU21623XXSP,2013-09-22 10:56:00,
2013-09-22 04:01:00,55.2,37.8,29.77,SSE,157,0.0,0.0,52,0.00,,,0.00,WUHU21623XXSP,2013-09-22 11:01:00,
2013-09-22 04:06:00,55.2,37.8,29.77,SSW,202,5.8,5.8,52,0.00,,,0.00,WUHU21623XXSP,2013-09-22 11:06:00,
2013-09-22 04:11:00,55.4,37.5,29.77,West,270,4.7,5.8,51,0.00,,,0.00,WUHU21623XXSP,2013-09-22 11:11:00,
2013-09-22 04:16:00,55.9,36.4,29.77,West,270,14.5,14.5,48,0.00,,,0.00,WUHU21623XXSP,2013-09-22 11:16:00,
2013-09-22 04:21:00,56.3,35.7,29.77,WNW,292,12.5,14.5,46,0.00,,,0.00,WUHU21623XXSP,2013-09-22 11:21:00,
2013-09-22 04:26:00,56.7,36.0,29.76,West,270,12.1,15.0,46,0.00,,,0.00,WUHU21623XXSP,2013-09-22 11:26:00,
2013-09-22 04:31:00,56.8,35.6,29.76,WSW,247,21.7,21.7,45,0.00,,,0.00,WUHU21623XXSP,2013-09-22 11:31:00,
2013-09-22 04:36:00,56.8,35.6,29.76,SSW,202,10.7,23.9,45,0.00,,,0.00,WUHU21623XXSP,2013-09-22 11:36:00,
2013-09-22 04:41:00,57.0,35.2,29.76,SSW,202,15.0,23.9,44,0.00,,,0.00,WUHU21623XXSP,2013-09-22 11:41:00,
2013-09-22 04:46:00,56.8,35.0,29.77,SSW,202,0.0,15.0,44,0.00,,,0.00,WUHU21623XXSP,2013-09-22 11:46:00,
2013-09-22 04:51:00,56.3,35.1,29.78,NNE,22,7.6,10.3,45,0.00,,,0.00,WUHU21623XXSP,2013-09-22 11:51:00,
2013-09-22 04:56:00,56.1,35.5,29.78,NE,45,6.7,7.6,46,0.00,,,0.00,WUHU21623XXSP,2013-09-22 11:56:00,
2013-09-22 05:02:00,56.1,34.9,29.78,North,0,5.1,7.6,45,0.00,,,0.00,WUHU21623XXSP,2013-09-22 12:02:00,
2013-09-22 05:07:00,55.9,34.2,29.79,ESE,112,4.5,7.6,44,0.00,,,0.00,WUHU21623XXSP,2013-09-22 12:07:00,
2013-09-22 05:12:00,55.9,34.2,29.79,SSE,157,0.0,4.5,44,0.00,,,0.00,WUHU21623XXSP,2013-09-22 12:12:00,
2013-09-22 05:17:00,55.9,34.2,29.79,SSW,202,4.3,4.3,44,0.00,,,0.00,WUHU21623XXSP,2013-09-22 12:17:00,
2013-09-22 05:22:00,55.9,34.2,29.79,SSW,202,4.3,6.5,44,0.00,,,0.00,WUHU21623XXSP,2013-09-22 12:22:00,
2013-09-22 05:27:00,55.9,34.8,29.79,SSW,202,0.0,6.5,45,0.00,,,0.00,WUHU21623XXSP,2013-09-22 12:27:00,
2013-09-22 05:32:00,55.6,34.4,29.79,SSW,202,0.0,0.0,45,0.00,,,0.00,WUHU21623XXSP,2013-09-22 12:32:00,
2013-09-22 05:37:00,55.6,34.4,29.78,WNW,292,10.1,10.1,45,0.00,,,0.00,WUHU21623XXSP,2013-09-22 12:37:00,
2013-09-22 05:42:00,55.6,34.4,29.78,West,270,17.0,17.0,45,0.00,,,0.00,WUHU21623XXSP,2013-09-22 12:42:00,
2013-09-22 05:47:00,55.6,34.4,29.77,WSW,247,20.6,20.8,45,0.00,,,0.00,WUHU21623XXSP,2013-09-22 12:47:00,
2013-09-22 05:52:00,55.8,35.1,29.78,WSW,247,13.9,20.8,46,0.00,,,0.00,WUHU21623XXSP,2013-09-22 12:52:00,
2013-09-22 05:57:00,55.8,35.7,29.79,WSW,247,4.7,14.3,47,0.00,,,0.00,WUHU21623XXSP,2013-09-22 12:57:00,
2013-09-22 06:02:00,55.6,35.0,29.79,West,270,2.5,10.3,46,0.00,,,0.00,WUHU21623XXSP,2013-09-22 13:02:00,
2013-09-22 06:07:00,55.4,34.8,29.79,West,270,9.8,9.8,46,0.00,,,0.00,WUHU21623XXSP,2013-09-22 13:07:00,
2013-09-22 06:12:00,55.4,34.8,29.79,WSW,247,8.1,10.1,46,0.00,,,0.00,WUHU21623XXSP,2013-09-22 13:12:00,
2013-09-22 06:17:00,55.9,34.2,29.79,West,270,2.9,10.1,44,0.00,,,0.00,WUHU21623XXSP,2013-09-22 13:17:00,
2013-09-22 06:22:00,56.1,34.4,29.79,West,270,7.2,8.5,44,0.00,,,0.00,WUHU21623XXSP,2013-09-22 13:22:00,
2013-09-22 06:27:00,56.1,34.4,29.78,West,270,9.6,9.6,44,0.00,,,0.00,WUHU21623XXSP,2013-09-22 13:27:00,
2013-09-22 06:32:00,56.1,34.4,29.79,WNW,292,6.9,9.8,44,0.00,,,0.00,WUHU21623XXSP,2013-09-22 13:32:00,
2013-09-22 06:37:00,55.9,34.2,29.80,WNW,292,0.0,10.3,44,0.00,,,0.00,WUHU21623XXSP,2013-09-22 13:37:00,
2013-09-22 06:43:00,55.2,34.1,29.81,WNW,292,0.0,10.3,45,0.00,,,0.00,WUHU21623XXSP,2013-09-22 13:43:00,
2013-09-22 06:48:00,54.9,34.3,29.81,WNW,292,0.0,0.0,46,0.00,,,0.00,WUHU21623XXSP,2013-09-22 13:48:00,
2013-09-22 06:53:00,54.5,34.6,29.81,North,0,0.4,0.4,47,0.00,,,0.00,WUHU21623XXSP,2013-09-22 13:53:00,
2013-09-22 06:58:00,54.7,34.2,29.80,WNW,292,0.0,0.4,46,0.00,,,0.00,WUHU21623XXSP,2013-09-22 13:58:00,
2013-09-22 07:03:00,54.9,33.8,29.80,NW,315,0.0,0.0,45,0.00,,,0.00,WUHU21623XXSP,2013-09-22 14:03:00,
2013-09-22 07:08:00,55.6,33.3,29.80,NNW,337,15.9,15.9,43,0.00,,,0.00,WUHU21623XXSP,2013-09-22 14:08:00,
2013-09-22 07:13:00,56.1,33.8,29.80,NW,315,8.3,15.9,43,0.00,,,0.00,WUHU21623XXSP,2013-09-22 14:13:00,
2013-09-22 07:18:00,56.5,33.6,29.80,NNW,337,11.6,11.6,42,0.00,,,0.00,WUHU21623XXSP,2013-09-22 14:18:00,
2013-09-22 07:23:00,57.0,33.5,29.80,NNW,337,0.0,11.6,41,0.00,,,0.00,WUHU21623XXSP,2013-09-22 14:23:00,
2013-09-22 07:29:00,57.0,33.5,29.80,WNW,292,8.5,8.5,41,0.00,,,0.00,WUHU21623XXSP,2013-09-22 14:29:00,
2013-09-22 07:34:00,57.0,33.5,29.80,NW,315,12.5,12.5,41,0.00,,,0.00,WUHU21623XXSP,2013-09-22 14:34:00,
2013-09-22 07:39:00,57.4,33.8,29.80,WNW,292,8.7,14.3,41,0.00,,,0.00,WUHU21623XXSP,2013-09-22 14:39:00,
2013-09-22 07:44:00,57.9,33.7,29.80,WNW,292,10.5,14.3,40,0.00,,,0.00,WUHU21623XXSP,2013-09-22 14:44:00,
2013-09-22 07:49:00,58.3,33.4,29.81,West,270,0.0,12.3,39,0.00,,,0.00,WUHU21623XXSP,2013-09-22 14:49:00,
2013-09-22 07:54:00,58.5,34.2,29.81,West,270,0.0,6.3,40,0.00,,,0.00,WUHU21623XXSP,2013-09-22 14:54:00,
2013-09-22 07:59:00,58.6,35.0,29.81,West,270,0.0,0.0,41,0.00,,,0.00,WUHU21623XXSP,2013-09-22 14:59:00,
2013-09-22 08:04:00,58.8,35.1,29.81,West,270,0.0,2.5,41,0.00,,,0.00,WUHU21623XXSP,2013-09-22 15:04:00,
2013-09-22 08:09:00,58.8,34.5,29.82,West,270,0.0,2.5,40,0.00,,,0.00,WUHU21623XXSP,2013-09-22 15:09:00,
2013-09-22 08:14:00,58.8,34.5,29.81,West,270,0.0,0.0,40,0.00,,,0.00,WUHU21623XXSP,2013-09-22 15:14:00,
2013-09-22 08:19:00,58.8,34.5,29.81,SE,135,0.7,3.1,40,0.00,,,0.00,WUHU21623XXSP,2013-09-22 15:19:00,
2013-09-22 08:24:00,59.0,34.7,29.81,SSW,202,6.7,6.7,40,0.00,,,0.00,WUHU21623XXSP,2013-09-22 15:24:00,
2013-09-22 08:29:00,59.2,34.9,29.81,SSW,202,4.5,6.7,40,0.00,,,0.00,WUHU21623XXSP,2013-09-22 15:29:00,
2013-09-22 08:34:00,59.4,35.0,29.82,SSW,202,0.0,4.5,40,0.00,,,0.00,WUHU21623XXSP,2013-09-22 15:34:00,
2013-09-22 08:39:00,59.7,34.6,29.81,SSW,202,3.4,3.4,39,0.00,,,0.00,WUHU21623XXSP,2013-09-22 15:39:00,
2013-09-22 08:45:00,60.6,34.0,29.82,SSW,202,0.0,3.4,37,0.00,,,0.00,WUHU21623XXSP,2013-09-22 15:45:00,
2013-09-22 08:50:00,61.7,34.3,29.82,SSW,202,0.0,0.0,36,0.00,,,0.00,WUHU21623XXSP,2013-09-22 15:50:00,
2013-09-22 08:55:00,62.6,34.3,29.83,SSW,202,0.0,0.9,35,0.00,,,0.00,WUHU21623XXSP,2013-09-22 15:55:00,
2013-09-22 09:00:00,64.2,34.4,29.83,SSW,202,5.6,5.6,33,0.00,,,0.00,WUHU21623XXSP,2013-09-22 16:00:00,
2013-09-22 09:05:00,65.5,34.8,29.82,SSW,202,0.0,5.6,32,0.00,,,0.00,WUHU21623XXSP,2013-09-22 16:05:00,
2013-09-22 09:10:00,66.4,35.6,29.83,SSW,202,0.0,6.7,32,0.00,,,0.00,WUHU21623XXSP,2013-09-22 16:10:00,
2013-09-22 09:15:00,66.7,34.4,29.83,SSW,202,0.0,6.7,30,0.00,,,0.00,WUHU21623XXSP,2013-09-22 16:15:00,
2013-09-22 09:20:00,67.8,35.3,29.83,West,270,5.4,5.4,30,0.00,,,0.00,WUHU21623XXSP,2013-09-22 16:20:00,
2013-09-22 09:25:00,68.4,34.7,29.83,WSW,247,6.3,6.3,29,0.00,,,0.00,WUHU21623XXSP,2013-09-22 16:25:00,
2013-09-22 09:30:00,68.5,34.7,29.83,West,270,3.6,6.3,27,0.00,,,0.00,WUHU21623XXSP,2013-09-22 16:30:00,
2013-09-22 09:35:00,68.9,33.2,29.84,SW,225,11.6,11.6,27,0.00,,,0.00,WUHU21623XXSP,2013-09-22 16:35:00,
2013-09-22 09:40:00,68.4,32.8,29.83,SW,225,9.4,11.6,27,0.00,,,0.00,WUHU21623XXSP,2013-09-22 16:40:00,
2013-09-22 09:45:00,68.5,32.9,29.83,SW,225,0.0,9.4,27,0.00,,,0.00,WUHU21623XXSP,2013-09-22 16:45:00,
2013-09-22 09:50:00,69.4,32.7,29.83,SW,225,10.3,10.3,26,0.00,,,0.00,WUHU21623XXSP,2013-09-22 16:50:00,
2013-09-22 09:55:00,69.1,33.4,29.83,SSW,202,2.9,11.6,27,0.00,,,0.00,WUHU21623XXSP,2013-09-22 16:55:00,
2013-09-22 10:00:00,69.6,32.8,29.83,SSW,202,4.0,11.6,26,0.00,,,0.00,WUHU21623XXSP,2013-09-22 17:00:00,
2013-09-22 10:05:00,69.6,32.8,29.83,SW,225,9.2,9.2,26,0.00,,,0.00,WUHU21623XXSP,2013-09-22 17:05:00,
2013-09-22 10:10:00,70.0,33.2,29.84,WSW,247,7.2,9.2,26,0.00,,,0.00,WUHU21623XXSP,2013-09-22 17:10:00,
2013-09-22 10:15:00,70.9,32.9,29.84,West,270,0.0,8.9,25,0.00,,,0.00,WUHU21623XXSP,2013-09-22 17:15:00,
2013-09-22 10:20:00,71.4,32.3,29.84,SSW,202,2.5,2.5,24,0.00,,,0.00,WUHU21623XXSP,2013-09-22 17:20:00,
2013-09-22 10:25:00,71.2,32.2,29.83,SSW,202,5.8,8.3,24,0.00,,,0.00,WUHU21623XXSP,2013-09-22 17:25:00,
2013-09-22 10:30:00,71.2,32.2,29.83,WSW,247,0.0,12.8,24,0.00,,,0.00,WUHU21623XXSP,2013-09-22 17:30:00,
2013-09-22 10:35:00,71.6,32.5,29.84,SSW,202,12.1,12.8,24,0.00,,,0.00,WUHU21623XXSP,2013-09-22 17:35:00,
2013-09-22 10:40:00,72.1,31.9,29.83,WSW,247,8.9,12.1,23,0.00,,,0.00,WUHU21623XXSP,2013-09-22 17:40:00,
2013-09-22 10:45:00,72.1,31.9,29.83,SSW,202,12.8,12.8,23,0.00,,,0.00,WUHU21623XXSP,2013-09-22 17:45:00,
2013-09-22 10:50:00,72.1,31.9,29.83,West,270,0.0,12.8,23,0.00,,,0.00,WUHU21623XXSP,2013-09-22 17:50:00,
2013-09-22 10:55:00,72.7,31.4,29.83,West,270,4.3,5.1,22,0.00,,,0.00,WUHU21623XXSP,2013-09-22 17:55:00,
2013-09-22 11:00:00,72.9,31.6,29.83,SW,225,9.8,9.8,22,0.00,,,0.00,WUHU21623XXSP,2013-09-22 18:00:00,
2013-09-22 11:06:00,73.2,31.9,29.83,West,270,1.1,9.8,22,0.00,,,0.00,WUHU21623XXSP,2013-09-22 18:06:00,
2013-09-22 11:11:00,73.2,31.9,29.83,WSW,247,5.6,9.4,22,0.00,,,0.00,WUHU21623XXSP,2013-09-22 18:11:00,
2013-09-22 11:16:00,74.8,32.2,29.83,WNW,292,0.9,9.2,21,0.00,,,0.00,WUHU21623XXSP,2013-09-22 18:16:00,
2013-09-22 11:22:00,75.4,31.6,29.83,West,270,7.4,9.2,20,0.00,,,0.00,WUHU21623XXSP,2013-09-22 18:22:00,
2013-09-22 11:27:00,75.6,32.8,29.83,WNW,292,5.1,7.4,21,0.00,,,0.00,WUHU21623XXSP,2013-09-22 18:27:00,
2013-09-22 11:32:00,76.3,32.3,29.83,WNW,292,2.7,5.1,20,0.00,,,0.00,WUHU21623XXSP,2013-09-22 18:32:00,
2013-09-22 11:37:00,76.8,32.8,29.83,West,270,0.0,2.7,20,0.00,,,0.00,WUHU21623XXSP,2013-09-22 18:37:00,
2013-09-22 11:42:00,77.0,31.5,29.83,West,270,3.4,8.3,19,0.00,,,0.00,WUHU21623XXSP,2013-09-22 18:42:00,
2013-09-22 11:47:00,77.2,33.0,29.83,NNW,337,0.0,8.5,20,0.00,,,0.00,WUHU21623XXSP,2013-09-22 18:47:00,
2013-09-22 11:52:00,77.2,29.7,29.83,West,270,4.7,8.5,18,0.00,,,0.00,WUHU21623XXSP,2013-09-22 18:52:00,
2013-09-22 11:58:00,76.8,29.4,29.83,WSW,247,8.9,10.5,18,0.00,,,0.00,WUHU21623XXSP,2013-09-22 18:58:00,
2013-09-22 12:03:00,76.6,32.6,29.83,West,270,5.6,10.5,20,0.00,,,0.00,WUHU21623XXSP,2013-09-22 19:03:00,
2013-09-22 12:08:00,77.0,29.6,29.83,West,270,4.3,8.3,18,0.00,,,0.00,WUHU21623XXSP,2013-09-22 19:08:00,
2013-09-22 12:13:00,76.8,29.4,29.83,WSW,247,8.1,8.1,18,0.00,,,0.00,WUHU21623XXSP,2013-09-22 19:13:00,
2013-09-22 12:18:00,77.2,33.0,29.83,WSW,247,3.6,8.1,20,0.00,,,0.00,WUHU21623XXSP,2013-09-22 19:18:00,
2013-09-22 12:23:00,77.0,29.6,29.82,SW,225,13.6,13.6,18,0.00,,,0.00,WUHU21623XXSP,2013-09-22 19:23:00,
2013-09-22 12:28:00,77.9,30.3,29.82,WNW,292,0.0,13.6,18,0.00,,,0.00,WUHU21623XXSP,2013-09-22 19:28:00,
2013-09-22 12:33:00,78.6,30.8,29.82,NNE,22,6.3,11.9,18,0.00,,,0.00,WUHU21623XXSP,2013-09-22 19:33:00,
2013-09-22 12:38:00,79.7,30.1,29.82,NNW,337,12.3,12.3,17,0.00,,,0.00,WUHU21623XXSP,2013-09-22 19:38:00,
2013-09-22 12:43:00,79.5,29.9,29.82,WNW,292,6.3,12.3,17,0.00,,,0.00,WUHU21623XXSP,2013-09-22 19:43:00,
2013-09-22 12:48:00,79.3,29.8,29.82,West,270,4.7,11.6,17,0.00,,,0.00,WUHU21623XXSP,2013-09-22 19:48:00,
2013-09-22 12:53:00,78.6,29.2,29.82,West,270,4.0,8.1,17,0.00,,,0.00,WUHU21623XXSP,2013-09-22 19:53:00,
2013-09-22 12:58:00,79.7,30.1,29.82,NW,315,9.6,9.6,17,0.00,,,0.00,WUHU21623XXSP,2013-09-22 19:58:00,
2013-09-22 13:03:00,79.9,30.3,29.82,NNW,337,4.7,17.7,17,0.00,,,0.00,WUHU21623XXSP,2013-09-22 20:03:00,
2013-09-22 13:08:00,80.2,30.6,29.81,NW,315,0.7,17.7,17,0.00,,,0.00,WUHU21623XXSP,2013-09-22 20:08:00,
2013-09-22 13:13:00,79.9,30.3,29.81,ESE,112,0.9,3.1,17,0.00,,,0.00,WUHU21623XXSP,2013-09-22 20:13:00,
2013-09-22 13:18:00,79.3,29.8,29.82,ESE,112,8.3,8.3,17,0.00,,,0.00,WUHU21623XXSP,2013-09-22 20:18:00,
2013-09-22 13:23:00,80.4,32.4,29.82,North,0,19.2,19.2,18,0.00,,,0.00,WUHU21623XXSP,2013-09-22 20:23:00,
2013-09-22 13:28:00,81.0,31.2,29.82,WNW,292,5.6,19.2,17,0.00,,,0.00,WUHU21623XXSP,2013-09-22 20:28:00,
2013-09-22 13:33:00,81.3,29.8,29.82,West,270,1.6,16.8,16,0.00,,,0.00,WUHU21623XXSP,2013-09-22 20:33:00,
2013-09-22 13:38:00,81.1,31.3,29.82,North,0,0.9,16.8,17,0.00,,,0.00,WUHU21623XXSP,2013-09-22 20:38:00,
2013-09-22 13:43:00,81.1,31.3,29.82,North,0,13.6,13.6,17,0.00,,,0.00,WUHU21623XXSP,2013-09-22 20:43:00,
2013-09-22 13:48:00,81.1,29.6,29.81,WSW,247,15.2,15.2,16,0.00,,,0.00,WUHU21623XXSP,2013-09-22 20:48:00,
2013-09-22 13:53:00,81.3,31.5,29.82,SSW,202,10.3,15.2,17,0.00,,,0.00,WUHU21623XXSP,2013-09-22 20:53:00,
2013-09-22 13:58:00,81.3,33.2,29.81,SW,225,10.7,10.7,18,0.00,,,0.00,WUHU21623XXSP,2013-09-22 20:58:00,
2013-09-22 14:03:00,81.3,29.8,29.81,SW,225,2.2,10.7,16,0.00,,,0.00,WUHU21623XXSP,2013-09-22 21:03:00,
2013-09-22 14:08:00,81.1,31.3,29.81,WSW,247,0.0,6.7,17,0.00,,,0.00,WUHU21623XXSP,2013-09-22 21:08:00,
2013-09-22 14:13:00,81.7,31.7,29.81,WNW,292,7.4,7.4,17,0.00,,,0.00,WUHU21623XXSP,2013-09-22 21:13:00,
2013-09-22 14:18:00,82.2,30.5,29.81,West,270,0.0,7.4,16,0.00,,,0.00,WUHU21623XXSP,2013-09-22 21:18:00,
2013-09-22 14:23:00,82.0,30.3,29.81,West,270,0.0,7.6,16,0.00,,,0.00,WUHU21623XXSP,2013-09-22 21:23:00,
2013-09-22 14:28:00,82.2,30.5,29.81,WNW,292,21.0,21.0,16,0.00,,,0.00,WUHU21623XXSP,2013-09-22 21:28:00,
2013-09-22 14:33:00,81.9,31.9,29.81,WNW,292,13.0,21.0,17,0.00,,,0.00,WUHU21623XXSP,2013-09-22 21:33:00,
2013-09-22 14:38:00,81.7,31.7,29.81,SSW,202,6.7,18.8,17,0.00,,,0.00,WUHU21623XXSP,2013-09-22 21:38:00,
2013-09-22 14:43:00,82.2,32.2,29.81,SSW,202,12.1,12.1,17,0.00,,,0.00,WUHU21623XXSP,2013-09-22 21:43:00,
2013-09-22 14:48:00,82.9,32.7,29.81,WNW,292,0.4,15.9,17,0.00,,,0.00,WUHU21623XXSP,2013-09-22 21:48:00,
2013-09-22 14:53:00,82.8,32.6,29.81,West,270,19.5,19.5,17,0.00,,,0.00,WUHU21623XXSP,2013-09-22 21:53:00,
2013-09-22 14:58:00,83.3,31.3,29.81,WNW,292,0.7,19.5,16,0.00,,,0.00,WUHU21623XXSP,2013-09-22 21:58:00,
2013-09-22 15:03:00,84.0,31.9,29.81,North,0,11.0,11.0,16,0.00,,,0.00,WUHU21623XXSP,2013-09-22 22:03:00,
2013-09-22 15:08:00,83.7,29.9,29.81,WSW,247,19.0,19.0,15,0.00,,,0.00,WUHU21623XXSP,2013-09-22 22:08:00,
2013-09-22 15:13:00,83.1,29.5,29.81,WSW,247,20.1,22.6,15,0.00,,,0.00,WUHU21623XXSP,2013-09-22 22:13:00,
2013-09-22 15:18:00,83.5,29.8,29.81,WSW,247,22.4,25.5,15,0.00,,,0.00,WUHU21623XXSP,2013-09-22 22:18:00,
2013-09-22 15:23:00,82.2,32.2,29.81,WSW,247,9.2,25.5,17,0.00,,,0.00,WUHU21623XXSP,2013-09-22 22:23:00,
2013-09-22 15:28:00,81.1,31.3,29.81,SSW,202,15.4,15.4,17,0.00,,,0.00,WUHU21623XXSP,2013-09-22 22:28:00,
2013-09-22 15:33:00,80.4,30.7,29.81,SSW,202,10.1,16.1,17,0.00,,,0.00,WUHU21623XXSP,2013-09-22 22:33:00,
2013-09-22 15:38:00,79.3,31.5,29.81,South,180,22.4,22.4,18,0.00,,,0.00,WUHU21623XXSP,2013-09-22 22:38:00,
2013-09-22 15:43:00,78.6,30.8,29.81,SW,225,9.4,22.4,18,0.00,,,0.00,WUHU21623XXSP,2013-09-22 22:43:00,
2013-09-22 15:48:00,78.6,30.8,29.81,SSW,202,10.5,15.2,18,0.00,,,0.00,WUHU21623XXSP,2013-09-22 22:48:00,
2013-09-22 15:53:00,79.0,31.1,29.81,SW,225,14.5,14.5,18,0.00,,,0.00,WUHU21623XXSP,2013-09-22 22:53:00,
2013-09-22 15:58:00,78.6,34.2,29.81,SW,225,14.5,14.5,20,0.00,,,0.00,WUHU21623XXSP,2013-09-22 22:58:00,
2013-09-22 16:03:00,78.4,35.1,29.81,West,270,8.7,14.5,21,0.00,,,0.00,WUHU21623XXSP,2013-09-22 23:03:00,
2013-09-22 16:08:00,78.1,36.9,29.81,WSW,247,10.1,11.2,23,0.00,,,0.00,WUHU21623XXSP,2013-09-22 23:08:00,
2013-09-22 16:13:00,77.7,35.6,29.81,West,270,6.3,12.3,22,0.00,,,0.00,WUHU21623XXSP,2013-09-22 23:13:00,
2013-09-22 16:19:00,77.5,36.5,29.81,WNW,292,10.5,12.3,23,0.00,,,0.00,WUHU21623XXSP,2013-09-22 23:19:00,
2013-09-22 16:24:00,77.2,36.2,29.81,WNW,292,12.5,12.5,23,0.00,,,0.00,WUHU21623XXSP,2013-09-22 23:24:00,
2013-09-22 16:29:00,77.2,36.2,29.81,West,270,11.0,12.5,23,0.00,,,0.00,WUHU21623XXSP,2013-09-22 23:29:00,
2013-09-22 16:34:00,76.6,35.7,29.81,West,270,10.7,11.0,23,0.00,,,0.00,WUHU21623XXSP,2013-09-22 23:34:00,
2013-09-22 16:39:00,76.6,35.7,29.81,WSW,247,16.1,16.1,23,0.00,,,0.00,WUHU21623XXSP,2013-09-22 23:39:00,
2013-09-22 16:44:00,76.6,35.7,29.81,West,270,6.9,16.1,23,0.00,,,0.00,WUHU21623XXSP,2013-09-22 23:44:00,
2013-09-22 16:49:00,76.3,35.4,29.81,West,270,3.1,15.0,23,0.00,,,0.00,WUHU21623XXSP,2013-09-22 23:49:00,
2013-09-22 16:54:00,76.3,35.4,29.81,West,270,7.4,10.3,23,0.00,,,0.00,WUHU21623XXSP,2013-09-22 23:54:00,
2013-09-22 16:59:00,76.3,35.4,29.81,West,270,4.9,10.3,23,0.00,,,0.00,WUHU21623XXSP,2013-09-22 23:59:00,
2013-09-22 17:04:00,76.3,35.4,29.81,West,270,3.1,7.6,23,0.00,,,0.00,WUHU21623XXSP,2013-09-23 00:04:00,
2013-09-22 17:09:00,76.3,35.4,29.81,West,270,0.0,4.5,23,0.00,,,0.00,WUHU21623XXSP,2013-09-23 00:09:00,
2013-09-22 17:14:00,76.1,36.3,29.81,West,270,7.4,7.4,24,0.00,,,0.00,WUHU21623XXSP,2013-09-23 00:14:00,
2013-09-22 17:19:00,76.1,35.3,29.81,WSW,247,10.3,10.3,23,0.00,,,0.00,WUHU21623XXSP,2013-09-23 00:19:00,
2013-09-22 17:25:00,75.9,35.1,29.81,WNW,292,11.2,11.2,23,0.00,,,0.00,WUHU21623XXSP,2013-09-23 00:25:00,
2013-09-22 17:30:00,76.1,36.3,29.81,West,270,4.7,11.2,24,0.00,,,0.00,WUHU21623XXSP,2013-09-23 00:30:00,
2013-09-22 17:35:00,75.7,36.0,29.81,West,270,5.4,6.5,24,0.00,,,0.00,WUHU21623XXSP,2013-09-23 00:35:00,
2013-09-22 17:40:00,75.0,35.4,29.81,WSW,247,10.1,10.1,24,0.00,,,0.00,WUHU21623XXSP,2013-09-23 00:40:00,
2013-09-22 17:45:00,75.4,35.7,29.81,WNW,292,7.8,10.1,24,0.00,,,0.00,WUHU21623XXSP,2013-09-23 00:45:00,
2013-09-22 17:50:00,75.4,35.7,29.81,West,270,3.1,8.1,24,0.00,,,0.00,WUHU21623XXSP,2013-09-23 00:50:00,
2013-09-22 17:55:00,75.0,36.4,29.81,West,270,6.9,10.3,25,0.00,,,0.00,WUHU21623XXSP,2013-09-23 00:55:00,
2013-09-22 18:00:00,74.1,35.7,29.81,West,270,11.4,11.4,25,0.00,,,0.00,WUHU21623XXSP,2013-09-23 01:00:00,
2013-09-22 18:06:00,73.9,36.5,29.81,WNW,292,9.8,11.4,26,0.00,,,0.00,WUHU21623XXSP,2013-09-23 01:06:00,
2013-09-22 18:11:00,73.2,37.9,29.81,WNW,292,11.4,11.4,28,0.00,,,0.00,WUHU21623XXSP,2013-09-23 01:11:00,
2013-09-22 18:16:00,72.7,37.5,29.81,West,270,7.4,11.4,28,0.00,,,0.00,WUHU21623XXSP,2013-09-23 01:16:00,
2013-09-22 18:21:00,72.0,37.9,29.81,West,270,3.4,8.5,29,0.00,,,0.00,WUHU21623XXSP,2013-09-23 01:21:00,
2013-09-22 18:26:00,71.4,37.5,29.81,West,270,6.0,10.1,29,0.00,,,0.00,WUHU21623XXSP,2013-09-23 01:26:00,
2013-09-22 18:31:00,70.7,37.9,29.81,West,270,6.9,10.1,30,0.00,,,0.00,WUHU21623XXSP,2013-09-23 01:31:00,
2013-09-22 18:36:00,70.3,37.5,29.81,West,270,8.5,8.5,30,0.00,,,0.00,WUHU21623XXSP,2013-09-23 01:36:00,
2013-09-22 18:41:00,69.4,37.5,29.81,WNW,292,11.0,11.0,31,0.00,,,0.00,WUHU21623XXSP,2013-09-23 01:41:00,
2013-09-22 18:46:00,68.4,37.2,29.81,West,270,5.8,11.0,32,0.00,,,0.00,WUHU21623XXSP,2013-09-23 01:46:00,
2013-09-22 18:52:00,67.6,37.3,29.82,West,270,4.9,9.6,33,0.00,,,0.00,WUHU21623XXSP,2013-09-23 01:52:00,
2013-09-22 18:57:00,67.3,37.0,29.82,West,270,7.6,9.6,33,0.00,,,0.00,WUHU21623XXSP,2013-09-23 01:57:00,
2013-09-22 19:02:00,66.7,37.3,29.81,West,270,1.1,8.9,34,0.00,,,0.00,WUHU21623XXSP,2013-09-23 02:02:00,
2013-09-22 19:07:00,66.4,37.7,29.82,West,270,4.5,8.9,35,0.00,,,0.00,WUHU21623XXSP,2013-09-23 02:07:00,
2013-09-22 19:12:00,66.0,37.4,29.81,West,270,4.5,4.5,35,0.00,,,0.00,WUHU21623XXSP,2013-09-23 02:12:00,
2013-09-22 19:17:00,65.8,38.0,29.82,West,270,6.0,8.1,36,0.00,,,0.00,WUHU21623XXSP,2013-09-23 02:17:00,
2013-09-22 19:22:00,65.7,37.8,29.81,West,270,8.3,10.3,36,0.00,,,0.00,WUHU21623XXSP,2013-09-23 02:22:00,
2013-09-22 19:27:00,65.5,37.7,29.81,WSW,247,8.3,10.3,36,0.00,,,0.00,WUHU21623XXSP,2013-09-23 02:27:00,
2013-09-22 19:32:00,65.5,37.7,29.81,West,270,3.1,8.3,36,0.00,,,0.00,WUHU21623XXSP,2013-09-23 02:32:00,
2013-09-22 19:37:00,65.3,37.5,29.82,West,270,4.5,4.5,36,0.00,,,0.00,WUHU21623XXSP,2013-09-23 02:37:00,
2013-09-22 19:42:00,65.1,37.3,29.82,WNW,292,0.0,6.5,36,0.00,,,0.00,WUHU21623XXSP,2013-09-23 02:42:00,
2013-09-22 19:48:00,65.1,37.3,29.82,West,270,0.0,6.5,36,0.00,,,0.00,WUHU21623XXSP,2013-09-23 02:48:00,
2013-09-22 19:53:00,65.1,37.3,29.83,West,270,1.8,5.8,36,0.00,,,0.00,WUHU21623XXSP,2013-09-23 02:53:00,
2013-09-22 19:58:00,64.9,37.2,29.83,West,270,0.0,6.3,36,0.00,,,0.00,WUHU21623XXSP,2013-09-23 02:58:00,
2013-09-22 20:03:00,64.9,37.2,29.83,West,270,7.8,7.8,36,0.00,,,0.00,WUHU21623XXSP,2013-09-23 03:03:00,
2013-09-22 20:08:00,64.8,37.0,29.83,West,270,2.0,7.8,36,0.00,,,0.00,WUHU21623XXSP,2013-09-23 03:08:00,
2013-09-22 20:13:00,64.8,36.8,29.83,West,270,2.5,2.5,36,0.00,,,0.00,WUHU21623XXSP,2013-09-23 03:13:00,
2013-09-22 20:18:00,64.4,37.4,29.83,West,270,0.7,2.9,37,0.00,,,0.00,WUHU21623XXSP,2013-09-23 03:18:00,
2013-09-22 20:23:00,64.2,37.2,29.84,West,270,0.7,6.5,37,0.00,,,0.00,WUHU21623XXSP,2013-09-23 03:23:00,
2013-09-22 20:28:00,64.2,37.2,29.84,West,270,3.1,6.5,37,0.00,,,0.00,WUHU21623XXSP,2013-09-23 03:28:00,
2013-09-22 20:33:00,64.2,37.2,29.84,West,270,4.5,5.1,37,0.00,,,0.00,WUHU21623XXSP,2013-09-23 03:33:00,
2013-09-22 20:38:00,64.2,37.2,29.84,West,270,0.0,5.1,37,0.00,,,0.00,WUHU21623XXSP,2013-09-23 03:38:00,
2013-09-22 20:43:00,64.0,37.2,29.85,West,270,0.0,4.5,37,0.00,,,0.00,WUHU21623XXSP,2013-09-23 03:43:00,
2013-09-22 20:48:00,64.0,37.1,29.85,West,270,0.0,0.0,37,0.00,,,0.00,WUHU21623XXSP,2013-09-23 03:48:00,
2013-09-22 20:53:00,63.5,36.6,29.85,West,270,0.0,1.1,37,0.00,,,0.00,WUHU21623XXSP,2013-09-23 03:53:00,
2013-09-22 20:58:00,63.5,36.6,29.85,West,270,0.0,0.0,37,0.00,,,0.00,WUHU21623XXSP,2013-09-23 03:58:00,
2013-09-22 21:01:00,63.5,36.6,29.85,West,270,0.0,0.0,37,0.00,,,0.00,WUHU21623XXSP,2013-09-23 04:01:00,
2013-09-22 21:02:00,63.5,36.6,29.86,West,270,0.0,0.0,37,0.00,,,0.00,WUHU21623XXSP,2013-09-23 04:02:00,
2013-09-22 21:07:00,63.1,37.0,29.86,West,270,0.0,0.0,38,0.00,,,0.00,WUHU21623XXSP,2013-09-23 04:07:00,
2013-09-22 21:12:00,62.4,37.1,29.86,West,270,0.0,0.0,39,0.00,,,0.00,WUHU21623XXSP,2013-09-23 04:12:00,
2013-09-22 21:17:00,62.1,36.9,29.86,West,270,0.0,0.0,39,0.00,,,0.00,WUHU21623XXSP,2013-09-23 04:17:00,
2013-09-22 21:22:00,61.5,37.0,29.86,West,270,0.0,0.0,40,0.00,,,0.00,WUHU21623XXSP,2013-09-23 04:22:00,
2013-09-22 21:27:00,61.2,36.6,29.86,West,270,0.0,0.0,40,0.00,,,0.00,WUHU21623XXSP,2013-09-23 04:27:00,
2013-09-22 21:32:00,60.6,36.5,29.86,West,270,0.0,0.0,40,0.00,,,0.00,WUHU21623XXSP,2013-09-23 04:32:00,
2013-09-22 21:37:00,60.4,36.0,29.86,West,270,0.0,0.0,40,0.00,,,0.00,WUHU21623XXSP,2013-09-23 04:37:00,
2013-09-22 21:42:00,60.1,36.8,29.86,West,270,0.0,0.0,42,0.00,,,0.00,WUHU21623XXSP,2013-09-23 04:42:00,
2013-09-22 21:47:00,60.1,36.8,29.86,West,270,0.0,0.0,42,0.00,,,0.00,WUHU21623XXSP,2013-09-23 04:47:00,
2013-09-22 21:52:00,59.7,36.5,29.86,West,270,0.0,0.0,42,0.00,,,0.00,WUHU21623XXSP,2013-09-23 04:52:00,
2013-09-22 21:57:00,59.5,36.3,29.87,West,270,0.0,0.0,42,0.00,,,0.00,WUHU21623XXSP,2013-09-23 04:57:00,
2013-09-22 22:02:00,59.5,36.9,29.87,West,270,0.0,0.0,43,0.00,,,0.00,WUHU21623XXSP,2013-09-23 05:02:00,
2013-09-22 22:07:00,58.8,35.7,29.87,West,270,0.0,0.0,42,0.00,,,0.00,WUHU21623XXSP,2013-09-23 05:07:00,
2013-09-22 22:12:00,58.8,35.7,29.87,West,270,0.0,0.0,42,0.00,,,0.00,WUHU21623XXSP,2013-09-23 05:12:00,
2013-09-22 22:17:00,58.8,36.3,29.88,West,270,0.0,0.0,43,0.00,,,0.00,WUHU21623XXSP,2013-09-23 05:17:00,
2013-09-22 22:22:00,58.8,36.3,29.88,West,270,0.0,0.0,43,0.00,,,0.00,WUHU21623XXSP,2013-09-23 05:22:00,
2013-09-22 22:27:00,58.6,36.1,29.88,West,270,0.0,0.0,43,0.00,,,0.00,WUHU21623XXSP,2013-09-23 05:27:00,
2013-09-22 22:32:00,58.3,35.8,29.88,West,270,0.0,0.0,43,0.00,,,0.00,WUHU21623XXSP,2013-09-23 05:32:00,
2013-09-22 22:37:00,58.1,35.6,29.88,West,270,0.0,0.0,43,0.00,,,0.00,WUHU21623XXSP,2013-09-23 05:37:00,
2013-09-22 22:42:00,57.9,35.5,29.88,West,270,0.0,0.0,43,0.00,,,0.00,WUHU21623XXSP,2013-09-23 05:42:00,
2013-09-22 22:47:00,57.9,36.0,29.88,West,270,0.0,0.0,44,0.00,,,0.00,WUHU21623XXSP,2013-09-23 05:47:00,
2013-09-22 22:53:00,57.9,36.6,29.89,West,270,0.0,0.0,45,0.00,,,0.00,WUHU21623XXSP,2013-09-23 05:53:00,
2013-09-22 22:58:00,57.7,36.4,29.89,West,270,0.0,0.0,45,0.00,,,0.00,WUHU21623XXSP,2013-09-23 05:58:00,
2013-09-22 23:03:00,57.4,36.3,29.89,West,270,0.0,0.0,45,0.00,,,0.00,WUHU21623XXSP,2013-09-23 06:03:00,
2013-09-22 23:08:00,57.0,35.8,29.89,West,270,0.0,0.0,45,0.00,,,0.00,WUHU21623XXSP,2013-09-23 06:08:00,
2013-09-22 23:13:00,56.8,35.6,29.89,West,270,0.0,0.0,45,0.00,,,0.00,WUHU21623XXSP,2013-09-23 06:13:00,
2013-09-22 23:18:00,56.5,35.3,29.89,West,270,0.0,0.0,45,0.00,,,0.00,WUHU21623XXSP,2013-09-23 06:18:00,
2013-09-22 23:23:00,56.3,35.7,29.89,West,270,0.0,0.0,46,0.00,,,0.00,WUHU21623XXSP,2013-09-23 06:23:00,
2013-09-22 23:29:00,56.1,35.5,29.89,West,270,0.0,0.0,46,0.00,,,0.00,WUHU21623XXSP,2013-09-23 06:29:00,
2013-09-22 23:34:00,56.1,36.0,29.89,West,270,0.0,0.0,47,0.00,,,0.00,WUHU21623XXSP,2013-09-23 06:34:00,
2013-09-22 23:39:00,56.1,36.6,29.89,West,270,0.0,0.0,48,0.00,,,0.00,WUHU21623XXSP,2013-09-23 06:39:00,
2013-09-22 23:44:00,56.1,36.0,29.89,West,270,0.0,0.0,47,0.00,,,0.00,WUHU21623XXSP,2013-09-23 06:44:00,
2013-09-22 23:49:00,56.1,36.0,29.89,West,270,0.0,0.0,47,0.00,,,0.00,WUHU21623XXSP,2013-09-23 06:49:00,
2013-09-22 23:54:00,55.9,35.9,29.88,West,270,0.0,0.0,47,0.00,,,0.00,WUHU21623XXSP,2013-09-23 06:54:00,
2013-09-22 23:59:00,55.9,35.9,29.88,West,270,0.0,0.0,47,0.00,,,0.00,WUHU21623XXSP,2013-09-23 06:59:00,